Location: Noverd
(38.0910°N, 121.6877°W)
Time: 00:50:10
(UTC+00:00)

Exosat Rocket - Pass Details

Date: 13 February 2026
Orbit: 761 x 2512 km, 72.3° (Epoch: 10 March)

Event Time Altitude Azimuth Distance (km) Brightness Sun altitude
Exits shadow 13:23:41 - 336° (NNW) 3,357 6.6 -19.3°
Reaches altitude 10° 13:25:49 10° 335° (NNW) 2,484 5.9 -18.9°
Maximum altitude 13:31:09 70° 252° (WSW) 819 3.4 -17.8°
Drops below altitude 10° 13:36:05 10° 169° (S) 2,305 6.1 -16.9°
Sets 13:38:28 0° 167° (SSE) 3,287 7.0 -16.4°
